1596751252,2020-08-07 00:00,431.00,-29
1596751312,2020-08-07 00:01,427.00,-30
1596751372,2020-08-07 00:02,427.00,-30
1596751432,2020-08-07 00:03,429.00,-31
1596751492,2020-08-07 00:04,428.00,-32
1596751552,2020-08-07 00:05,429.00,-32
1596751613,2020-08-07 00:06,430.00,-32
1596751673,2020-08-07 00:07,429.00,-32
1596751733,2020-08-07 00:08,431.00,-33
1596751793,2020-08-07 00:09,427.00,-34
1596751853,2020-08-07 00:10,427.00,-32
1596751913,2020-08-07 00:11,428.00,-30
1596751973,2020-08-07 00:12,430.00,-30
1596752033,2020-08-07 00:13,428.00,-30
1596752093,2020-08-07 00:14,427.00,-27
1596752153,2020-08-07 00:15,431.00,-31
1596752213,2020-08-07 00:16,427.00,-38
1596752273,2020-08-07 00:17,430.00,-31
1596752333,2020-08-07 00:18,430.00,-32
1596752393,2020-08-07 00:19,432.00,-31
1596752454,2020-08-07 00:20,430.00,-32
1596752514,2020-08-07 00:21,437.00,-37
1596752574,2020-08-07 00:22,434.00,-31
1596752634,2020-08-07 00:23,430.00,-33
1596752694,2020-08-07 00:24,426.00,-36
1596752754,2020-08-07 00:25,428.00,-33
1596752814,2020-08-07 00:26,428.00,-31
1596752874,2020-08-07 00:27,429.00,-31
1596752934,2020-08-07 00:28,430.00,-31
1596752994,2020-08-07 00:29,429.00,-31
1596753055,2020-08-07 00:30,430.00,-32
1596753115,2020-08-07 00:31,428.00,-36
1596753175,2020-08-07 00:32,429.00,-33
1596753235,2020-08-07 00:33,430.00,-32
1596753295,2020-08-07 00:34,431.00,-31
1596753355,2020-08-07 00:35,429.00,-32
1596753415,2020-08-07 00:36,430.00,-31
1596753475,2020-08-07 00:37,431.00,-32
1596753535,2020-08-07 00:38,431.00,-31
1596753595,2020-08-07 00:39,430.00,-34
1596753655,2020-08-07 00:40,431.00,-34
1596753715,2020-08-07 00:41,431.00,-31
1596753776,2020-08-07 00:42,433.00,-31
1596753836,2020-08-07 00:43,430.00,-32
1596753896,2020-08-07 00:44,430.00,-34
1596753956,2020-08-07 00:45,429.00,-35
1596754016,2020-08-07 00:46,429.00,-34
1596754076,2020-08-07 00:47,427.00,-30
1596754136,2020-08-07 00:48,430.00,-31
1596754196,2020-08-07 00:49,429.00,-31
1596754256,2020-08-07 00:50,427.00,-31
1596754316,2020-08-07 00:51,429.00,-31
1596754376,2020-08-07 00:52,428.00,-30
1596754436,2020-08-07 00:53,430.00,-37
1596754496,2020-08-07 00:54,427.00,-31
1596754556,2020-08-07 00:55,430.00,-36
1596754616,2020-08-07 00:56,430.00,-33
1596754676,2020-08-07 00:57,433.00,-37
1596754737,2020-08-07 00:58,428.00,-34
1596754797,2020-08-07 00:59,430.00,-34
1596754857,2020-08-07 01:00,429.00,-37
1596754917,2020-08-07 01:01,432.00,-34
1596754977,2020-08-07 01:02,430.00,-35
1596755037,2020-08-07 01:03,429.00,-33
1596755097,2020-08-07 01:04,430.00,-31
1596755157,2020-08-07 01:05,430.00,-32
1596755217,2020-08-07 01:06,430.00,-31
1596755277,2020-08-07 01:07,429.00,-31
1596755337,2020-08-07 01:08,429.00,-31
1596755397,2020-08-07 01:09,429.00,-31
1596755457,2020-08-07 01:10,431.00,-34
1596755517,2020-08-07 01:11,427.00,-32
1596755578,2020-08-07 01:12,431.00,-33
1596755638,2020-08-07 01:13,430.00,-33
1596755698,2020-08-07 01:14,431.00,-31
1596755758,2020-08-07 01:15,430.00,-31
1596755818,2020-08-07 01:16,429.00,-32
1596755878,2020-08-07 01:17,430.00,-33
1596755938,2020-08-07 01:18,431.00,-32
1596755998,2020-08-07 01:19,435.00,-31
1596756058,2020-08-07 01:20,432.00,-31
1596756118,2020-08-07 01:21,431.00,-31
1596756178,2020-08-07 01:22,432.00,-32
1596756238,2020-08-07 01:23,431.00,-32
1596756298,2020-08-07 01:24,428.00,-31
1596756358,2020-08-07 01:25,428.00,-31
1596756418,2020-08-07 01:26,430.00,-29
1596756478,2020-08-07 01:27,432.00,-29
1596756538,2020-08-07 01:28,428.00,-31
1596756598,2020-08-07 01:29,431.00,-28
1596756658,2020-08-07 01:30,432.00,-29
1596756718,2020-08-07 01:31,432.00,-29
1596756778,2020-08-07 01:32,430.00,-30
1596756839,2020-08-07 01:33,432.00,-30
1596756899,2020-08-07 01:34,429.00,-30
1596756959,2020-08-07 01:35,431.00,-29
1596757019,2020-08-07 01:36,433.00,-29
1596757079,2020-08-07 01:37,435.00,-33
1596757142,2020-08-07 01:39,434.00,-32
1596757202,2020-08-07 01:40,433.00,-30
1596757262,2020-08-07 01:41,435.00,-32
1596757322,2020-08-07 01:42,429.00,-31
1596757382,2020-08-07 01:43,431.00,-34
1596757442,2020-08-07 01:44,432.00,-31
1596757502,2020-08-07 01:45,434.00,-28
1596757562,2020-08-07 01:46,432.00,-30
1596757622,2020-08-07 01:47,430.00,-28
1596757682,2020-08-07 01:48,435.00,-29
1596757742,2020-08-07 01:49,433.00,-29
1596757802,2020-08-07 01:50,436.00,-30
1596757862,2020-08-07 01:51,430.00,-29
1596757922,2020-08-07 01:52,428.00,-31
1596757982,2020-08-07 01:53,435.00,-35
1596758042,2020-08-07 01:54,429.00,-29
1596758102,2020-08-07 01:55,432.00,-29
1596758162,2020-08-07 01:56,428.00,-34
1596758222,2020-08-07 01:57,434.00,-32
1596758282,2020-08-07 01:58,434.00,-35
1596758342,2020-08-07 01:59,434.00,-32
1596758403,2020-08-07 02:00,433.00,-33
1596758463,2020-08-07 02:01,438.00,-31
1596758523,2020-08-07 02:02,433.00,-31
1596758583,2020-08-07 02:03,432.00,-30
1596758643,2020-08-07 02:04,433.00,-30
1596758703,2020-08-07 02:05,433.00,-31
1596758763,2020-08-07 02:06,431.00,-32
1596758823,2020-08-07 02:07,433.00,-34
1596758883,2020-08-07 02:08,433.00,-32
1596758943,2020-08-07 02:09,433.00,-31
1596759003,2020-08-07 02:10,434.00,-32
1596759063,2020-08-07 02:11,431.00,-35
1596759124,2020-08-07 02:12,434.00,-33
1596759184,2020-08-07 02:13,432.00,-33
1596759244,2020-08-07 02:14,433.00,-32
1596759304,2020-08-07 02:15,434.00,-32
1596759364,2020-08-07 02:16,434.00,-30
1596759424,2020-08-07 02:17,436.00,-29
1596759484,2020-08-07 02:18,436.00,-36
1596759544,2020-08-07 02:19,436.00,-31
1596759604,2020-08-07 02:20,435.00,-28
1596759664,2020-08-07 02:21,433.00,-33
1596759724,2020-08-07 02:22,436.00,-30
1596759784,2020-08-07 02:23,435.00,-29
1596759844,2020-08-07 02:24,427.00,-31
1596759904,2020-08-07 02:25,428.00,-32
1596759964,2020-08-07 02:26,427.00,-32
1596760024,2020-08-07 02:27,429.00,-31
1596760084,2020-08-07 02:28,430.00,-31
1596760145,2020-08-07 02:29,432.00,-31
1596760205,2020-08-07 02:30,431.00,-28
1596760265,2020-08-07 02:31,430.00,-33
1596760325,2020-08-07 02:32,431.00,-33
1596760385,2020-08-07 02:33,431.00,-33
1596760445,2020-08-07 02:34,430.00,-34
1596760505,2020-08-07 02:35,434.00,-31
1596760565,2020-08-07 02:36,434.00,-32
1596760625,2020-08-07 02:37,432.00,-30
1596760685,2020-08-07 02:38,430.00,-34
1596760745,2020-08-07 02:39,425.00,-32
1596760805,2020-08-07 02:40,430.00,-29
1596760865,2020-08-07 02:41,427.00,-28
1596760925,2020-08-07 02:42,432.00,-32
1596760985,2020-08-07 02:43,432.00,-33
1596761045,2020-08-07 02:44,433.00,-31
1596761105,2020-08-07 02:45,435.00,-32
1596761165,2020-08-07 02:46,433.00,-33
1596761225,2020-08-07 02:47,433.00,-28
1596761285,2020-08-07 02:48,435.00,-31
1596761345,2020-08-07 02:49,434.00,-30
1596761406,2020-08-07 02:50,432.00,-32
1596761466,2020-08-07 02:51,435.00,-30
1596761526,2020-08-07 02:52,436.00,-31
1596761586,2020-08-07 02:53,433.00,-33
1596761646,2020-08-07 02:54,437.00,-29
1596761706,2020-08-07 02:55,437.00,-36
1596761766,2020-08-07 02:56,439.00,-32
1596761826,2020-08-07 02:57,435.00,-31
1596761886,2020-08-07 02:58,433.00,-34
1596761946,2020-08-07 02:59,433.00,-35
1596762006,2020-08-07 03:00,432.00,-31
1596762066,2020-08-07 03:01,430.00,-30
1596762126,2020-08-07 03:02,433.00,-33
1596762186,2020-08-07 03:03,435.00,-33
1596762246,2020-08-07 03:04,434.00,-29
1596762306,2020-08-07 03:05,433.00,-30
1596762366,2020-08-07 03:06,436.00,-33
1596762426,2020-08-07 03:07,435.00,-33
1596762486,2020-08-07 03:08,436.00,-30
1596762547,2020-08-07 03:09,434.00,-33
1596762607,2020-08-07 03:10,435.00,-32
1596762667,2020-08-07 03:11,441.00,-30
1596762727,2020-08-07 03:12,437.00,-32
1596762787,2020-08-07 03:13,437.00,-28
1596762847,2020-08-07 03:14,440.00,-30
1596762907,2020-08-07 03:15,440.00,-31
1596762967,2020-08-07 03:16,433.00,-33
1596763027,2020-08-07 03:17,434.00,-31
1596763087,2020-08-07 03:18,434.00,-34
1596763147,2020-08-07 03:19,436.00,-34
1596763207,2020-08-07 03:20,437.00,-30
1596763267,2020-08-07 03:21,437.00,-30
1596763327,2020-08-07 03:22,436.00,-29
1596763387,2020-08-07 03:23,439.00,-31
1596763447,2020-08-07 03:24,434.00,-31
1596763507,2020-08-07 03:25,439.00,-33
1596763567,2020-08-07 03:26,438.00,-31
1596763627,2020-08-07 03:27,441.00,-32
1596763687,2020-08-07 03:28,441.00,-29
1596763747,2020-08-07 03:29,438.00,-30
1596763807,2020-08-07 03:30,438.00,-31
1596763867,2020-08-07 03:31,437.00,-31
1596763928,2020-08-07 03:32,441.00,-32
1596763988,2020-08-07 03:33,441.00,-35
1596764048,2020-08-07 03:34,442.00,-38
1596764108,2020-08-07 03:35,442.00,-29
1596764168,2020-08-07 03:36,445.00,-31
1596764228,2020-08-07 03:37,441.00,-31
1596764288,2020-08-07 03:38,440.00,-33
1596764348,2020-08-07 03:39,438.00,-32
1596764408,2020-08-07 03:40,438.00,-31
1596764468,2020-08-07 03:41,435.00,-30
1596764528,2020-08-07 03:42,435.00,-31
1596764588,2020-08-07 03:43,439.00,-33
1596764648,2020-08-07 03:44,442.00,-28
1596764708,2020-08-07 03:45,435.00,-31
1596764768,2020-08-07 03:46,436.00,-32
1596764828,2020-08-07 03:47,434.00,-31
1596764888,2020-08-07 03:48,437.00,-31
1596764948,2020-08-07 03:49,438.00,-31
1596765008,2020-08-07 03:50,441.00,-30
1596765068,2020-08-07 03:51,442.00,-32
1596765128,2020-08-07 03:52,444.00,-31
1596765188,2020-08-07 03:53,442.00,-35
1596765248,2020-08-07 03:54,440.00,-32
1596765308,2020-08-07 03:55,443.00,-31
1596765369,2020-08-07 03:56,442.00,-31
1596765429,2020-08-07 03:57,440.00,-29
1596765489,2020-08-07 03:58,435.00,-31
1596765549,2020-08-07 03:59,439.00,-35
1596765609,2020-08-07 04:00,436.00,-28
1596765669,2020-08-07 04:01,439.00,-30
1596765729,2020-08-07 04:02,438.00,-29
1596765789,2020-08-07 04:03,440.00,-34
1596765849,2020-08-07 04:04,437.00,-30
1596765909,2020-08-07 04:05,438.00,-32
1596765969,2020-08-07 04:06,437.00,-34
1596766029,2020-08-07 04:07,438.00,-29
1596766089,2020-08-07 04:08,439.00,-32
1596766149,2020-08-07 04:09,436.00,-30
1596766209,2020-08-07 04:10,439.00,-31
1596766269,2020-08-07 04:11,443.00,-33
1596766329,2020-08-07 04:12,442.00,-29
1596766389,2020-08-07 04:13,443.00,-30
1596766449,2020-08-07 04:14,445.00,-30
1596766509,2020-08-07 04:15,443.00,-29
1596766569,2020-08-07 04:16,443.00,-30
1596766630,2020-08-07 04:17,437.00,-33
1596766690,2020-08-07 04:18,442.00,-31
1596766750,2020-08-07 04:19,440.00,-31
1596766810,2020-08-07 04:20,444.00,-32
1596766870,2020-08-07 04:21,444.00,-34
1596766930,2020-08-07 04:22,442.00,-28
1596766990,2020-08-07 04:23,440.00,-31
1596767050,2020-08-07 04:24,445.00,-31
1596767110,2020-08-07 04:25,443.00,-35
1596767170,2020-08-07 04:26,442.00,-33
1596767230,2020-08-07 04:27,442.00,-30
1596767290,2020-08-07 04:28,443.00,-32
1596767350,2020-08-07 04:29,444.00,-30
1596767410,2020-08-07 04:30,441.00,-30
1596767470,2020-08-07 04:31,443.00,-32
1596767530,2020-08-07 04:32,445.00,-31
1596767590,2020-08-07 04:33,442.00,-30
1596767650,2020-08-07 04:34,442.00,-31
1596767711,2020-08-07 04:35,444.00,-29
1596767771,2020-08-07 04:36,443.00,-31
1596767831,2020-08-07 04:37,445.00,-30
1596767891,2020-08-07 04:38,445.00,-34
1596767951,2020-08-07 04:39,445.00,-30
1596768011,2020-08-07 04:40,446.00,-30
1596768071,2020-08-07 04:41,439.00,-31
1596768131,2020-08-07 04:42,441.00,-31
1596768191,2020-08-07 04:43,440.00,-28
1596768251,2020-08-07 04:44,441.00,-29
1596768311,2020-08-07 04:45,443.00,-29
1596768371,2020-08-07 04:46,444.00,-31
1596768431,2020-08-07 04:47,442.00,-31
1596768491,2020-08-07 04:48,446.00,-32
1596768551,2020-08-07 04:49,443.00,-32
1596768611,2020-08-07 04:50,447.00,-32
1596768671,2020-08-07 04:51,448.00,-30
1596768731,2020-08-07 04:52,446.00,-30
1596768791,2020-08-07 04:53,446.00,-31
1596768851,2020-08-07 04:54,445.00,-28
1596768912,2020-08-07 04:55,445.00,-34
1596768972,2020-08-07 04:56,446.00,-30
1596769032,2020-08-07 04:57,444.00,-31
1596769092,2020-08-07 04:58,443.00,-32
1596769152,2020-08-07 04:59,439.00,-32
1596769212,2020-08-07 05:00,441.00,-30
1596769272,2020-08-07 05:01,440.00,-32
1596769332,2020-08-07 05:02,444.00,-33
1596769392,2020-08-07 05:03,444.00,-29
1596769452,2020-08-07 05:04,443.00,-32
1596769512,2020-08-07 05:05,446.00,-31
1596769572,2020-08-07 05:06,448.00,-31
1596769632,2020-08-07 05:07,450.00,-31
1596769692,2020-08-07 05:08,445.00,-34
1596769752,2020-08-07 05:09,445.00,-31
1596769812,2020-08-07 05:10,440.00,-31
1596769872,2020-08-07 05:11,441.00,-31
1596769932,2020-08-07 05:12,440.00,-28
1596769992,2020-08-07 05:13,442.00,-30
1596770052,2020-08-07 05:14,439.00,-31
1596770112,2020-08-07 05:15,440.00,-33
1596770172,2020-08-07 05:16,439.00,-31
1596770232,2020-08-07 05:17,437.00,-33
1596770292,2020-08-07 05:18,437.00,-31
1596770352,2020-08-07 05:19,439.00,-35
1596770413,2020-08-07 05:20,436.00,-35
1596770473,2020-08-07 05:21,439.00,-30
1596770533,2020-08-07 05:22,438.00,-34
1596770593,2020-08-07 05:23,443.00,-30
1596770653,2020-08-07 05:24,446.00,-29
1596770713,2020-08-07 05:25,445.00,-33
1596770773,2020-08-07 05:26,441.00,-31
1596770833,2020-08-07 05:27,439.00,-31
1596770893,2020-08-07 05:28,444.00,-32
1596770953,2020-08-07 05:29,446.00,-33
1596771013,2020-08-07 05:30,441.00,-32
1596771073,2020-08-07 05:31,442.00,-28
1596771133,2020-08-07 05:32,445.00,-33
1596771193,2020-08-07 05:33,443.00,-35
1596771253,2020-08-07 05:34,440.00,-32
1596771313,2020-08-07 05:35,442.00,-32
1596771373,2020-08-07 05:36,445.00,-29
1596771433,2020-08-07 05:37,446.00,-32
1596771494,2020-08-07 05:38,441.00,-33
1596771554,2020-08-07 05:39,437.00,-35
1596771614,2020-08-07 05:40,440.00,-30
1596771674,2020-08-07 05:41,441.00,-32
1596771734,2020-08-07 05:42,440.00,-34
1596771794,2020-08-07 05:43,437.00,-31
1596771854,2020-08-07 05:44,440.00,-29
1596771914,2020-08-07 05:45,437.00,-31
1596771974,2020-08-07 05:46,435.00,-31
1596772034,2020-08-07 05:47,436.00,-30
1596772094,2020-08-07 05:48,437.00,-31
1596772154,2020-08-07 05:49,434.00,-34
1596772214,2020-08-07 05:50,436.00,-33
1596772274,2020-08-07 05:51,440.00,-30
1596772334,2020-08-07 05:52,438.00,-35
1596772394,2020-08-07 05:53,438.00,-36
1596772454,2020-08-07 05:54,439.00,-31
1596772514,2020-08-07 05:55,438.00,-34
1596772574,2020-08-07 05:56,440.00,-32
1596772634,2020-08-07 05:57,439.00,-31
1596772694,2020-08-07 05:58,435.00,-34
1596772755,2020-08-07 05:59,438.00,-29
1596772815,2020-08-07 06:00,439.00,-33
1596772875,2020-08-07 06:01,440.00,-31
1596772935,2020-08-07 06:02,439.00,-32
1596772995,2020-08-07 06:03,439.00,-30
1596773055,2020-08-07 06:04,438.00,-29
1596773115,2020-08-07 06:05,439.00,-31
1596773175,2020-08-07 06:06,436.00,-29
1596773235,2020-08-07 06:07,434.00,-33
1596773295,2020-08-07 06:08,433.00,-34
1596773355,2020-08-07 06:09,434.00,-33
1596773416,2020-08-07 06:10,434.00,-31
1596773476,2020-08-07 06:11,434.00,-33
1596773536,2020-08-07 06:12,434.00,-33
1596773596,2020-08-07 06:13,435.00,-35
1596773656,2020-08-07 06:14,439.00,-31
1596773716,2020-08-07 06:15,435.00,-31
1596773776,2020-08-07 06:16,438.00,-32
1596773836,2020-08-07 06:17,437.00,-30
1596773896,2020-08-07 06:18,437.00,-32
1596773956,2020-08-07 06:19,436.00,-33
1596774016,2020-08-07 06:20,440.00,-34
1596774076,2020-08-07 06:21,436.00,-28
1596774136,2020-08-07 06:22,436.00,-32
1596774196,2020-08-07 06:23,432.00,-30
1596774256,2020-08-07 06:24,436.00,-34
1596774316,2020-08-07 06:25,440.00,-31
1596774376,2020-08-07 06:26,437.00,-29
1596774437,2020-08-07 06:27,432.00,-30
1596774497,2020-08-07 06:28,436.00,-30
1596774557,2020-08-07 06:29,434.00,-30
1596774617,2020-08-07 06:30,433.00,-29
1596774677,2020-08-07 06:31,433.00,-35
1596774737,2020-08-07 06:32,435.00,-31
1596774797,2020-08-07 06:33,433.00,-31
1596774857,2020-08-07 06:34,435.00,-31
1596774917,2020-08-07 06:35,436.00,-31
1596774977,2020-08-07 06:36,435.00,-33
1596775037,2020-08-07 06:37,435.00,-31
1596775097,2020-08-07 06:38,437.00,-33
1596775157,2020-08-07 06:39,434.00,-28
1596775217,2020-08-07 06:40,428.00,-30
1596775277,2020-08-07 06:41,432.00,-29
1596775337,2020-08-07 06:42,432.00,-32
1596775397,2020-08-07 06:43,431.00,-28
1596775457,2020-08-07 06:44,432.00,-30
1596775518,2020-08-07 06:45,431.00,-31
1596775578,2020-08-07 06:46,431.00,-30
1596775638,2020-08-07 06:47,431.00,-33
1596775698,2020-08-07 06:48,430.00,-31
1596775758,2020-08-07 06:49,430.00,-29
1596775818,2020-08-07 06:50,431.00,-30
1596775878,2020-08-07 06:51,429.00,-32
1596775938,2020-08-07 06:52,432.00,-29
1596775998,2020-08-07 06:53,430.00,-30
1596776058,2020-08-07 06:54,433.00,-31
1596776118,2020-08-07 06:55,432.00,-32
1596776178,2020-08-07 06:56,428.00,-32
1596776238,2020-08-07 06:57,432.00,-28
1596776298,2020-08-07 06:58,429.00,-32
1596776358,2020-08-07 06:59,428.00,-34
1596776418,2020-08-07 07:00,430.00,-35
1596776478,2020-08-07 07:01,429.00,-31
1596776538,2020-08-07 07:02,429.00,-31
1596776599,2020-08-07 07:03,428.00,-33
1596776659,2020-08-07 07:04,426.00,-32
1596776719,2020-08-07 07:05,427.00,-34
1596776779,2020-08-07 07:06,423.00,-29
1596776839,2020-08-07 07:07,424.00,-29
1596776899,2020-08-07 07:08,423.00,-34
1596776959,2020-08-07 07:09,422.00,-32
1596777019,2020-08-07 07:10,424.00,-31
1596777079,2020-08-07 07:11,422.00,-30
1596777139,2020-08-07 07:12,422.00,-30
1596777200,2020-08-07 07:13,421.00,-30
1596777260,2020-08-07 07:14,421.00,-29
1596777320,2020-08-07 07:15,423.00,-29
1596777380,2020-08-07 07:16,423.00,-31
1596777440,2020-08-07 07:17,424.00,-29
1596777500,2020-08-07 07:18,423.00,-30
1596777560,2020-08-07 07:19,422.00,-29
1596777620,2020-08-07 07:20,423.00,-32
1596777680,2020-08-07 07:21,422.00,-32
1596777740,2020-08-07 07:22,423.00,-31
1596777800,2020-08-07 07:23,422.00,-32
1596777861,2020-08-07 07:24,421.00,-29
1596777921,2020-08-07 07:25,421.00,-30
1596777981,2020-08-07 07:26,420.00,-29
1596778041,2020-08-07 07:27,422.00,-29
1596778101,2020-08-07 07:28,419.00,-29
1596778161,2020-08-07 07:29,416.00,-31
1596778221,2020-08-07 07:30,419.00,-32
1596778281,2020-08-07 07:31,421.00,-33
1596778341,2020-08-07 07:32,422.00,-32
1596778401,2020-08-07 07:33,421.00,-29
1596778461,2020-08-07 07:34,420.00,-30
1596778521,2020-08-07 07:35,420.00,-29
1596778581,2020-08-07 07:36,418.00,-31
1596778641,2020-08-07 07:37,418.00,-30
1596778701,2020-08-07 07:38,419.00,-30
1596778762,2020-08-07 07:39,422.00,-30
1596778822,2020-08-07 07:40,419.00,-30
1596778882,2020-08-07 07:41,422.00,-30
1596778942,2020-08-07 07:42,417.00,-32
1596779002,2020-08-07 07:43,417.00,-30
1596779062,2020-08-07 07:44,419.00,-30
1596779122,2020-08-07 07:45,418.00,-31
1596779182,2020-08-07 07:46,418.00,-29
1596779242,2020-08-07 07:47,416.00,-31
1596779302,2020-08-07 07:48,416.00,-31
1596779362,2020-08-07 07:49,415.00,-31
1596779422,2020-08-07 07:50,417.00,-33
1596779482,2020-08-07 07:51,420.00,-32
1596779542,2020-08-07 07:52,416.00,-29
1596779602,2020-08-07 07:53,414.00,-31
1596779663,2020-08-07 07:54,415.00,-30
1596779723,2020-08-07 07:55,413.00,-32
1596779783,2020-08-07 07:56,411.00,-32
1596779843,2020-08-07 07:57,410.00,-31
1596779903,2020-08-07 07:58,413.00,-32
1596779963,2020-08-07 07:59,411.00,-33
1596780023,2020-08-07 08:00,412.00,-30
1596780083,2020-08-07 08:01,412.00,-30
1596780143,2020-08-07 08:02,413.00,-33
1596780203,2020-08-07 08:03,412.00,-29
1596780263,2020-08-07 08:04,412.00,-33
1596780323,2020-08-07 08:05,413.00,-31
1596780383,2020-08-07 08:06,413.00,-32
1596780444,2020-08-07 08:07,412.00,-32
1596780504,2020-08-07 08:08,411.00,-34
1596780564,2020-08-07 08:09,412.00,-32
1596780624,2020-08-07 08:10,413.00,-31
1596780684,2020-08-07 08:11,413.00,-29
1596780744,2020-08-07 08:12,411.00,-29
1596780804,2020-08-07 08:13,411.00,-32
1596780864,2020-08-07 08:14,411.00,-33
1596780924,2020-08-07 08:15,414.00,-29
1596780984,2020-08-07 08:16,410.00,-34
1596781044,2020-08-07 08:17,409.00,-31
1596781104,2020-08-07 08:18,409.00,-30
1596781165,2020-08-07 08:19,409.00,-30
1596781225,2020-08-07 08:20,410.00,-28
1596781285,2020-08-07 08:21,410.00,-31
1596781345,2020-08-07 08:22,408.00,-31
1596781405,2020-08-07 08:23,412.00,-30
1596781465,2020-08-07 08:24,411.00,-32
1596781525,2020-08-07 08:25,407.00,-29
1596781585,2020-08-07 08:26,412.00,-35
1596781645,2020-08-07 08:27,412.00,-30
1596781705,2020-08-07 08:28,415.00,-29
1596781765,2020-08-07 08:29,415.00,-31
1596781825,2020-08-07 08:30,415.00,-35
1596781885,2020-08-07 08:31,414.00,-32
1596781945,2020-08-07 08:32,413.00,-31
1596782005,2020-08-07 08:33,411.00,-31
1596782065,2020-08-07 08:34,411.00,-33
1596782126,2020-08-07 08:35,411.00,-32
1596782186,2020-08-07 08:36,411.00,-30
1596782246,2020-08-07 08:37,413.00,-29
1596782306,2020-08-07 08:38,413.00,-36
1596782366,2020-08-07 08:39,412.00,-29
1596782426,2020-08-07 08:40,409.00,-32
1596782486,2020-08-07 08:41,410.00,-32
1596782546,2020-08-07 08:42,409.00,-31
1596782606,2020-08-07 08:43,409.00,-30
1596782666,2020-08-07 08:44,411.00,-29
1596782726,2020-08-07 08:45,410.00,-32
1596782786,2020-08-07 08:46,408.00,-32
1596782847,2020-08-07 08:47,410.00,-30
1596782907,2020-08-07 08:48,412.00,-31
1596782967,2020-08-07 08:49,408.00,-30
1596783027,2020-08-07 08:50,411.00,-29
1596783087,2020-08-07 08:51,408.00,-32
1596783148,2020-08-07 08:52,408.00,-35
1596783208,2020-08-07 08:53,410.00,-35
1596783268,2020-08-07 08:54,413.00,-31
1596783328,2020-08-07 08:55,405.00,-32
1596783388,2020-08-07 08:56,409.00,-31
1596783448,2020-08-07 08:57,410.00,-31
1596783508,2020-08-07 08:58,408.00,-31
1596783568,2020-08-07 08:59,406.00,-29
1596783628,2020-08-07 09:00,406.00,-30
1596783689,2020-08-07 09:01,408.00,-31
1596783749,2020-08-07 09:02,407.00,-32
1596783809,2020-08-07 09:03,409.00,-30
1596783869,2020-08-07 09:04,408.00,-31
1596783929,2020-08-07 09:05,408.00,-32
1596783989,2020-08-07 09:06,405.00,-31
1596784049,2020-08-07 09:07,402.00,-33
1596784109,2020-08-07 09:08,402.00,-30
1596784169,2020-08-07 09:09,407.00,-29
1596784229,2020-08-07 09:10,405.00,-30
1596784290,2020-08-07 09:11,402.00,-33
1596784350,2020-08-07 09:12,411.00,-31
1596784410,2020-08-07 09:13,410.00,-31
1596784470,2020-08-07 09:14,411.00,-29
1596784530,2020-08-07 09:15,410.00,-30
1596784590,2020-08-07 09:16,410.00,-31
1596784650,2020-08-07 09:17,407.00,-30
1596784710,2020-08-07 09:18,410.00,-29
1596784770,2020-08-07 09:19,410.00,-30
1596784830,2020-08-07 09:20,409.00,-29
1596784890,2020-08-07 09:21,410.00,-31
1596784951,2020-08-07 09:22,410.00,-29
1596785011,2020-08-07 09:23,411.00,-29
1596785071,2020-08-07 09:24,407.00,-31
1596785131,2020-08-07 09:25,409.00,-31
1596785191,2020-08-07 09:26,406.00,-30
1596785251,2020-08-07 09:27,408.00,-29
1596785311,2020-08-07 09:28,409.00,-31
1596785371,2020-08-07 09:29,409.00,-29
1596785431,2020-08-07 09:30,408.00,-34
1596785491,2020-08-07 09:31,415.00,-31
1596785551,2020-08-07 09:32,417.00,-30
1596785611,2020-08-07 09:33,413.00,-32
1596785671,2020-08-07 09:34,409.00,-30
1596785731,2020-08-07 09:35,408.00,-29
1596785791,2020-08-07 09:36,408.00,-29
1596785851,2020-08-07 09:37,409.00,-29
1596785912,2020-08-07 09:38,406.00,-31
1596785972,2020-08-07 09:39,409.00,-30
1596786032,2020-08-07 09:40,408.00,-29
1596786092,2020-08-07 09:41,409.00,-29
1596786152,2020-08-07 09:42,407.00,-29
1596786212,2020-08-07 09:43,409.00,-32
1596786272,2020-08-07 09:44,408.00,-29
1596786332,2020-08-07 09:45,406.00,-30
1596786392,2020-08-07 09:46,408.00,-33
1596786452,2020-08-07 09:47,407.00,-28
1596786512,2020-08-07 09:48,407.00,-33
1596786572,2020-08-07 09:49,406.00,-29
1596786632,2020-08-07 09:50,409.00,-29
1596786693,2020-08-07 09:51,408.00,-32
1596786753,2020-08-07 09:52,408.00,-30
1596786813,2020-08-07 09:53,406.00,-32
1596786873,2020-08-07 09:54,408.00,-30
1596786933,2020-08-07 09:55,409.00,-29
1596786993,2020-08-07 09:56,407.00,-29
1596787053,2020-08-07 09:57,410.00,-30
1596787114,2020-08-07 09:58,408.00,-33
1596787174,2020-08-07 09:59,407.00,-31
1596787234,2020-08-07 10:00,405.00,-29
1596787294,2020-08-07 10:01,406.00,-30
1596787354,2020-08-07 10:02,405.00,-31
1596787414,2020-08-07 10:03,405.00,-35
1596787474,2020-08-07 10:04,406.00,-29
1596787534,2020-08-07 10:05,403.00,-34
1596787595,2020-08-07 10:06,406.00,-33
1596787655,2020-08-07 10:07,403.00,-28
1596787715,2020-08-07 10:08,404.00,-32
1596787775,2020-08-07 10:09,407.00,-29
1596787835,2020-08-07 10:10,405.00,-31
1596787895,2020-08-07 10:11,404.00,-29
1596787955,2020-08-07 10:12,405.00,-29
1596788015,2020-08-07 10:13,405.00,-31
1596788076,2020-08-07 10:14,407.00,-31
1596788136,2020-08-07 10:15,406.00,-31